STARLINK-1677 (46576 NORAD) Tracking and Keplerian Element Data

This shows tracking and keplerian element data for the satellite.

Feedback or suggestion? Click here.




ElementValue
Catalog46576
NameSTARLINK-1677
Epoch Orbit177
Epoch Day304.91667824
Epoch Year2020
RAAN321.9359
Inclination52.9998
Eccentricity0.0001026
Argument of Perigee50.5223
Mean Anonmoly210.6352
Mean Motion15.62448354
Decay Rate0.00515047
L11 46576U 20070AW 20304.91667824 .00515047 00000-0 53441-2 0 9990
L22 46576 52.9998 321.9359 0001026 50.5223 210.6352 15.62448354 1776

Live tracking and technical data element details for STARLINK-1677 (NORAD 46576). STARLINK-1677 can be tracked NOW for your location showing map with azimuth and elevation plus other details from your city location.

Track the satellite on the map from your city or location and see movement details for azimuth, elevation, latitude, longitude, range, height, and movement on the map or in text.







IsCatalogInMostPopularTable: catalog: 46576, numindb: 3
Update: records affected: 1



GetName: 46576 STARLINK-1677

Hit Count: updated at: Sat, 31 Oct 2020 10:27:37 GMT